Regional Weather Roundup
Issued by NWS

Home | Current Version | Previous Version | Graphics & Text | Print | Product List | Glossary On
Versions: 1 2 3 4 5 6 7 8 9 10 11 12 13 14 15 16 17 18 19 20 21 22 23 24 25 26 27
000
ASUS45 KBOU 221707
RWRCO

WEATHER ROUNDUP FOR COLORADO
NATIONAL WEATHER SERVICE DENVER/BOULDER CO
1100 AM MDT MON MAY 22 2017

NOTE: "FAIR" INDICATES FEW OR NO CLOUDS BELOW 12000 FEET WITH NO
SIGNIFICANT WEATHER AND/OR OBSTRUCTIONS TO VISIBILITY.

COZ001>005-013-030-031-221800-
...NORTHWEST COLORADO...

CITY           SKY/WX    TMP DP  RH WIND       PRES   REMARKS
CRAIG          PTSUNNY   53  39  59 NW3       30.28F
HAYDEN         FAIR      52  34  50 SW6       30.28F
MEEKER         FAIR      54  39  57 S6        30.27F
RABBIT EARS PA PTSUNNY   32  30  93 W8        30.36S WCI  25
STEAMBOAT SPGS FAIR      49  35  59 NE3       30.27F
WALDEN           N/A     43  28  56 SW5       30.30F
$$

COZ006>008-011-221800-
...WEST CENTRAL VALLEYS...

CITY           SKY/WX    TMP DP  RH WIND       PRES   REMARKS
GRAND JUNCTION FAIR      63  39  41 NW9       30.22F
MONTROSE       FAIR      57  40  52 VRB3      30.26F
EAGLE          MOSUNNY   54  34  47 CALM      30.28F
RIFLE          FAIR      60  31  33 NW5       30.23F
DELTA          FAIR      62  40  44 SW6       30.24S
NUCLA          FAIR      59  36  41 CALM      30.29S
$$

COZ017>023-064>068-221800-
...SOUTHWEST COLORADO...

CITY           SKY/WX    TMP DP  RH WIND       PRES   REMARKS
DURANGO        FAIR      60  27  28 W7        30.19F
CORTEZ         FAIR      64  37  36 N16G22    30.21R
PAGOSA SPRINGS FAIR      58  24  26 NW8       30.22S
TELLURIDE      FAIR      50  33  52 W8        30.33S
WOLF CREEK PAS PTSUNNY   34  21  60 CALM      30.43R
$$

COZ009-010-012-014-032>034-037-058>063-221800-
...CENTRAL COLORADO...

CITY           SKY/WX    TMP DP  RH WIND       PRES   REMARKS
ASPEN          FAIR      52  29  41 VRB5      30.27F
BUENA VISTA    FAIR      54  25  33 NW12G22   30.24F
COPPER MTN     PTSUNNY   34  23  64 NW15      30.38S WCI  24
BERTHOUD PASS  CLOUDY    23  12  63 N8G28     30.38R HAZE    WCI  14
COTTONWOOD PAS PTSUNNY   45  32  61 CALM      30.31S
GUNNISON       FAIR      54  34  46 VRB3      30.27F
KREMMLING      PTSUNNY   55  34  44 NE6       30.29S
LEADVILLE      FAIR      41  17  38 VRB7G22   30.31S
MONARCH PASS   FAIR      32  30  93 NW9       30.48S WCI  24
SALIDA         FAIR      53  36  50 SE6       30.32F
SUNLIGHT       CLOUDY    34  27  75 CALM      30.42S
WILKERSON PASS FAIR      32  30  93 N6        30.38R WCI  26
$$

COZ069>075-221800-
...SAN LUIS VALLEY/SANGRE DE CRISTO MOUNTAINS...

CITY           SKY/WX    TMP DP  RH WIND       PRES   REMARKS
ALAMOSA        FAIR      56  31  38 VRB6      30.21F
DEL NORTE      PTSUNNY   54  30  39 SE3       30.23F
LA VETA PASS   FOG       34  34 100 W5        30.42S VSB 1/2 WCI  30
SAGUACHE       FAIR      55  30  38 N12G20    30.24S
$$

COZ035-036-038>040-221800-
...NORTHERN COLORADO FRONT RANGE...

CITY           SKY/WX    TMP DP  RH WIND       PRES   REMARKS
DENVER INTL AP FAIR      62  32  32 N13G22    30.17F
DMNS CITY PARK   N/A     62  30  29 NE10G17   30.17F
AURORA         MOSUNNY   59  28  31 N10G16    30.18F
FRONT RANGE AP MOSUNNY   61  37  41 NW12G18   30.18F
ERIE MUNI ARPT FAIR      62  31  31 N9        30.15F
BOULDER MUN AP FAIR      63  32  31 E7        30.15F
CENTENNIAL     FAIR      58  29  33 N9G22     30.19F
BROOMFIELD     MOSUNNY   61  28  29 NW5       30.18F
FORT COLLINS   FAIR      61  33  35 VRB5      30.14F
LONGMONT       FAIR      64  33  31 CALM      30.17S
$$

COZ041-046-047-076>085-087-088-221800-
...PIKES PEAK/PALMER DIVIDE AND SOUTHERN FOOTHILLS...

CITY           SKY/WX    TMP DP  RH WIND       PRES   REMARKS
COLO. SPRINGS  FAIR      59  34  39 NW13G21   30.20S
A. F. ACADEMY  FAIR      55  32  41 N12       30.20S
SCHRIEVER AFB  FAIR      54  38  53 SW5       30.20F
CHEYENNE MTN   PTSUNNY   52  38  59 N6        30.17S
ELLICOTT       FAIR     N/A N/A N/A CALM      30.19F
FALCON         FAIR      56  29  35 N10G17    30.22F
FORT CARSON    FAIR      56  41  57 SE8       30.19F
LIMON          FAIR      59  38  45 NW13G22   30.16F
MONUMENT HILL  FAIR      50  32  50 NW12      30.24S
CANON CITY     NOT AVBL
WALSENBURG     CLOUDY    54  45  71 SW6       30.22F
TRINIDAD       CLOUDY    52  40  63 W7        30.21F
$$

COZ042>045-048>051-090-091-221800-
...NORTHEAST COLORADO...

CITY           SKY/WX    TMP DP  RH WIND       PRES   REMARKS
GREELEY ARPT   FAIR      62  36  37 W8        30.14F
AKRON          FAIR      61  38  42 W10G25    30.12F
BURLINGTON     FAIR      64  45  49 NW10      30.11F
WRAY           FAIR      66  39  37 NW14G23   30.08F
YUMA           NOT AVBL
STERLING       FAIR      66  36  32 NW16G23   30.07F
HOLYOKE        NOT AVBL
FORT MORGAN    FAIR      63  38  40 W9G17     30.12F
$$

COZ086-089-092>099-221800-
...SOUTHEAST COLORADO...

CITY           SKY/WX    TMP DP  RH WIND       PRES   REMARKS
PUEBLO         FAIR      57  43  59 MISG      30.18F
LA JUNTA       FAIR      55  46  71 W8        30.16S
LAMAR          CLOUDY    52  47  83 W3        30.12F
SPRINGFIELD      N/A     50  48  93 N17       30.14F
$$




USA.gov is the U.S. government's official web portal to all federal, state and local government web resources and services.